TimeCDT,TemperatureF,Dew PointF,Humidity,Sea Level PressureIn,VisibilityMPH,Wind Direction,Wind SpeedMPH,Gust SpeedMPH,PrecipitationIn,Events,Conditions,WindDirDegrees,DateUTC
12:55 AM,67.6,63.1,85,29.96,10.0,West,10.4,-,N/A,,Clear,270,2012-11-01 05:55:00
1:55 AM,67.6,63.9,88,29.96,10.0,West,10.4,19.6,N/A,,Clear,270,2012-11-01 06:55:00
2:55 AM,67.1,62.2,84,29.96,10.0,WNW,6.9,-,N/A,,Partly Cloudy,290,2012-11-01 07:55:00
3:55 AM,63.5,61.2,92,29.97,10.0,North,8.1,-,N/A,,Scattered Clouds,360,2012-11-01 08:55:00
4:55 AM,61.0,60.1,97,29.97,10.0,North,4.6,-,N/A,,Overcast,10,2012-11-01 09:55:00
5:55 AM,61.3,59.0,92,29.99,10.0,North,5.8,-,N/A,,Overcast,360,2012-11-01 10:55:00
6:55 AM,58.6,54.1,85,30.01,10.0,NE,3.5,-,N/A,,Scattered Clouds,40,2012-11-01 11:55:00
6:56 AM,59.0,53.6,82,30.01,10.0,NE,4.6,-,N/A,,Light Drizzle,40,2012-11-01 11:56:00
6:57 AM,59.0,53.6,82,30.01,10.0,NE,4.6,-,N/A,,Partly Cloudy,40,2012-11-01 11:57:00
7:55 AM,58.5,48.7,70,30.03,10.0,NNE,6.9,-,0.00,,Clear,20,2012-11-01 12:55:00
8:55 AM,62.2,45.7,55,30.05,10.0,NNE,10.4,-,N/A,,Clear,30,2012-11-01 13:55:00
9:55 AM,66.0,37.8,35,30.06,10.0,NE,10.4,-,N/A,,Clear,40,2012-11-01 14:55:00
10:55 AM,69.8,37.8,31,30.08,10.0,Variable,6.9,-,N/A,,Clear,0,2012-11-01 15:55:00
11:55 AM,72.3,41.0,32,30.06,10.0,NNE,5.8,-,N/A,,Clear,20,2012-11-01 16:55:00
12:55 PM,73.9,43.9,34,30.02,10.0,North,6.9,-,N/A,,Clear,350,2012-11-01 17:55:00
1:16 PM,73.4,44.6,36,30.01,10.0,Variable,3.5,-,N/A,,Light Drizzle,0,2012-11-01 18:16:00
1:45 PM,73.4,50.0,44,29.99,10.0,South,8.1,-,N/A,,Clear,180,2012-11-01 18:45:00
1:55 PM,72.7,48.9,43,29.99,10.0,SSW,10.4,-,0.00,,Clear,200,2012-11-01 18:55:00
2:55 PM,72.0,47.7,42,29.98,10.0,WSW,10.4,-,N/A,,Clear,250,2012-11-01 19:55:00
3:55 PM,72.7,52.2,48,29.97,10.0,SW,9.2,-,N/A,,Clear,230,2012-11-01 20:55:00
4:20 PM,73.4,51.8,47,29.97,10.0,Calm,Calm,-,N/A,Rain,Light Rain,0,2012-11-01 21:20:00
4:23 PM,73.4,48.2,41,29.97,10.0,NW,8.1,-,N/A,,Clear,310,2012-11-01 21:23:00
4:55 PM,73.9,45.9,37,29.97,10.0,NW,8.1,-,0.00,,Clear,320,2012-11-01 21:55:00
5:55 PM,68.9,52.9,57,29.99,10.0,West,9.2,-,N/A,,Clear,270,2012-11-01 22:55:00
6:55 PM,65.8,50.9,58,30.01,10.0,WNW,6.9,-,N/A,,Clear,290,2012-11-01 23:55:00
7:55 PM,64.0,51.6,64,30.03,10.0,NW,5.8,-,N/A,,Clear,310,2012-11-02 00:55:00
8:55 PM,57.9,50.9,77,30.03,10.0,North,3.5,-,N/A,,Clear,350,2012-11-02 01:55:00
9:55 PM,55.0,50.5,85,30.04,10.0,North,3.5,-,N/A,,Clear,350,2012-11-02 02:55:00
10:55 PM,53.8,50.5,89,30.05,10.0,Calm,Calm,-,N/A,,Clear,0,2012-11-02 03:55:00
11:55 PM,54.0,49.5,85,30.04,10.0,Calm,Calm,-,N/A,,Clear,0,2012-11-02 04:55:00